[[{"header":{"parameterUnit":"m.s-1","parameterCategory":1,"la1":30.2991,"la2":30.254,"lo1":-89.0895,"lo2":-89.0444,"dy":0.0017,"dx":0.0017,"nx":28,"ny":28,"refTime":"2024-02-09T09:00:00:Z","depth":0,"parameterNumber":2,"parameterNumberName":"U-component_of_WINDS"},"data":[0,0,0,0,0,0,0,0,0,0,0,0,0,0,0,0,0,0,0,0,0,0,0,0,0,0,0,0,0,0,0,0,0,0,0,0,0,0,0,0,0,0,0,0,0,0,0,0,0,0,0,0,0,0,0,0,0,0,-2.6908,-2.6908,0,-2.691,-2.691,-2.691,-2.6874,-2.6873,-2.6872,-2.6871,-2.6874,-2.6875,-2.6876,0,0,0,0,0,0,0,0,0,0,0,0,0,-2.6873,-2.6874,-2.6908,-2.6908,-2.6908,-2.691,-2.691,-2.691,-2.6874,-2.6873,-2.6871,-2.687,-2.6874,-2.6875,-2.6876,0,0,0,0,0,0,0,0,0,0,0,0,0,-2.6883,-2.6874,-2.6908,-2.689,-2.6888,-2.691,-2.691,-2.691,-2.6874,-2.6873,-2.6871,-2.687,-2.6873,-2.6875,-2.6876,-2.6916,0,0,-2.6881,-2.6882,0,0,0,0,0,0,0,0,-2.6883,-2.6885,-2.6893,-2.6891,-2.689,-2.689,-2.6899,-2.6912,-2.6874,-2.688,-2.6871,-2.6869,-2.6881,-2.6881,-2.6885,-2.6916,-2.6916,-2.6881,-2.6882,-2.6883,-2.6883,0,0,0,0,0,0,0,-2.6882,-2.6884,-2.6909,-2.6893,-2.6891,-2.6882,-2.6882,-2.6902,-2.6889,-2.6879,-2.6876,-2.6877,-2.688,-2.6884,-2.6885,-2.6916,-2.6881,-2.6882,-2.6883,-2.6884,-2.698,-2.6982,0,0,0,0,0,0,-2.6884,-2.6884,-2.6909,-2.6909,-2.6882,-2.6884,-2.6884,-2.6892,-2.6888,-2.6886,-2.6878,-2.6875,-2.6882,-2.6883,-2.6885,-2.6931,-2.6883,-2.6884,-2.6885,-2.6978,-2.698,-2.6982,0,0,0,0,0,0,-2.6883,-2.6886,-2.6909,-2.6896,-2.6898,-2.6886,-2.6895,-2.6892,-2.6897,-2.6888,-2.6885,-2.6885,-2.6881,-2.6883,-2.6908,-2.693,-2.6885,-2.6886,-2.6977,-2.6979,-2.6981,-2.7023,0,0,0,0,0,0,-2.6882,-2.6886,-2.6901,-2.6896,-2.6899,-2.6932,-2.6897,-2.6893,-2.6899,-2.6895,-2.6893,-2.6892,-2.688,-2.6906,-2.691,-2.6932,-2.6887,-2.6974,-2.6978,-2.6981,-2.7019,-2.7026,-2.7032,0,0,0,0,0,-2.6881,-2.6912,-2.6901,-2.6905,-2.6916,-2.6933,-2.6934,-2.692,-2.6901,-2.6916,-2.691,-2.6892,-2.6928,-2.6909,-2.6913,-2.6936,-2.6973,-2.6977,-2.698,-2.7017,-2.7025,-2.7032,0,0,0,0,0,0,-2.6919,-2.6911,-2.6899,-2.693,-2.6932,-2.6927,-2.6944,-2.6929,-2.6937,-2.6933,-2.6916,-2.6916,-2.6944,-2.6943,-2.6922,-2.6974,-2.6947,-2.6952,-2.6973,-2.6982,-2.6988,-2.6987,-2.6889,0,0,0,0,0,-2.6931,-2.6945,-2.6937,-2.6965,-2.6967,-2.6956,-2.6962,-2.6951,-2.6953,-2.6954,-2.695,-2.6954,-2.6966,-2.6974,-2.6984,-2.702,-2.7019,-2.7038,-2.7044,-2.7049,-2.7053,-2.7072,-2.708,-2.6994,-2.6994,-2.6994,0,0,-2.6955,-2.6953,-2.6963,-2.6973,-2.6973,-2.6988,-2.6957,-2.6974,-2.6985,-2.6957,-2.698,-2.6978,-2.6981,-2.7011,-2.7025,-2.7011,-2.7077,-2.7054,-2.7058,-2.7059,-2.7077,-2.7085,-2.7092,-2.6997,-2.6996,-2.6996,0,0,-2.7007,-2.7007,-2.703,-2.7032,-2.7033,-2.7026,-2.7032,-2.7029,-2.7026,-2.705,-2.703,-2.7043,-2.7064,-2.7067,-2.7071,-2.7127,-2.711,-2.7131,-2.7164,-2.7183,-2.7189,-2.7195,-2.7214,-2.7222,-2.7135,-2.7135,-2.7135,0,-2.7037,-2.7058,-2.7044,-2.7062,-2.7068,-2.7044,-2.7067,-2.707,-2.7075,-2.7079,-2.7064,-2.7091,-2.7091,-2.7122,-2.7136,-2.714,-2.7146,-2.713,-2.719,-2.7195,-2.7201,-2.7219,-2.7226,-2.7137,-2.7137,-2.7137,-2.7137,0,-2.7095,-2.7111,-2.7129,-2.7135,-2.7143,-2.7164,-2.7153,-2.7162,-2.7152,-2.7146,-2.7171,-2.7171,-2.7181,-2.7188,-2.7177,-2.7218,-2.721,-2.7193,-2.7165,-2.7211,-2.7228,-2.7235,-2.7141,-2.714,-2.7139,-2.7139,0,0,-2.7168,-2.7167,-2.7174,-2.7177,-2.7178,-2.719,-2.7211,-2.7221,-2.7229,-2.7235,-2.7251,-2.7271,-2.7255,-2.726,-2.725,-2.7267,-2.7311,-2.7248,-2.7248,-2.7259,-2.7355,-2.7367,-2.7375,-2.7301,-2.7302,-2.7303,-2.7355,0,-2.7218,-2.7252,-2.7241,-2.7276,-2.729,-2.7269,-2.7287,-2.729,-2.7287,-2.7299,-2.7295,-2.7308,-2.7287,-2.729,-2.7306,-2.7302,-2.733,-2.7298,-2.7316,-2.7317,-2.7314,-2.7384,-2.7396,-2.7445,-2.7361,-2.7362,-2.7363,0,-2.728,-2.7288,-2.7324,-2.7324,-2.733,-2.7346,-2.7355,-2.7367,-2.7371,-2.7367,-2.7373,-2.736,-2.7381,-2.7355,-2.7384,-2.7363,-2.737,-2.737,-2.7371,-2.7371,-2.7341,-2.7384,-2.746,-2.7467,-2.7374,-2.7373,-2.7372,0,-2.7329,-2.7349,-2.7373,-2.7376,-2.7377,-2.7389,-2.739,-2.7392,-2.7399,-2.7408,-2.7412,-2.7423,-2.7429,-2.7438,-2.7429,-2.7411,-2.7459,-2.7432,-2.7456,-2.7457,-2.7465,-2.7465,-2.7542,-2.7473,-2.7473,-2.7473,-2.7473,0,-2.7384,-2.7407,-2.7395,-2.741,-2.7435,-2.7423,-2.7448,-2.7447,-2.745,-2.7464,-2.7448,-2.7462,-2.745,-2.7463,-2.7456,-2.7481,-2.7484,-2.7482,-2.7479,-2.7482,-2.7482,-2.7485,-2.7481,-2.7475,-2.7474,-2.7474,-2.7474,0,-2.7442,-2.7434,-2.7459,-2.7459,-2.7459,-2.7478,-2.7477,-2.7491,-2.7487,-2.7506,-2.751,-2.7504,-2.7519,-2.7511,-2.7527,-2.7522,-2.7554,-2.7548,-2.7553,-2.755,-2.7574,-2.7572,-2.7655,-2.7665,-2.7591,-2.7591,-2.7592,0,-2.7477,-2.7494,-2.7495,-2.7504,-2.7506,-2.752,-2.7527,-2.7517,-2.7525,-2.7532,-2.7545,-2.7559,-2.7569,-2.7595,-2.7592,-2.7604,-2.7597,-2.7626,-2.7599,-2.7602,-2.7596,-2.7595,-2.7596,-2.763,-2.7631,-2.7632,-2.7633,0,-2.7539,-2.7535,-2.7547,-2.7557,-2.7567,-2.7575,-2.7581,-2.7589,-2.7579,-2.759,-2.7605,-2.7613,-2.763,-2.7644,-2.7655,-2.7656,-2.7643,-2.7642,-2.7647,-2.7649,-2.7651,-2.7649,-2.7566,-2.7639,-2.7638,-2.7638,-2.7638,-2.7637,-2.7586,-2.76,-2.7603,-2.7617,-2.7621,-2.7628,-2.7641,-2.7639,-2.7652,-2.7664,-2.7658,-2.7675,-2.768,-2.7694,-2.7697,-2.7712,-2.77,-2.7709,-2.7711,-2.7713,-2.7716,-2.7651,-2.7714,-2.7714,-2.7714,-2.7713,-2.7713,0,-2.7646,-2.7648,-2.7661,-2.7671,-2.7682,-2.7669,-2.7676,-2.7686,-2.7702,-2.7708,-2.7718,-2.7736,-2.775,-2.775,-2.7763,-2.7774,-2.7768,-2.7778,-2.7776,-2.7776,-2.7726,-2.7719,-2.7782,-2.7782,-2.7782,-2.7782,-2.7782,-2.7782,-2.7679,-2.7703,-2.77,-2.7726,-2.7727,-2.7744,-2.775,-2.7756,-2.7761,-2.7781,-2.7793,-2.7793,-2.7796,-2.7809,-2.7822,-2.7821,-2.7826,-2.7838,-2.7835,-2.7787,-2.778,-2.7773,-2.7767,-2.7839,-2.7839,-2.7884,-2.7885,-2.7885]},{"header":{"parameterUnit":"m.s-1","parameterCategory":1,"la1":30.2991,"la2":30.254,"lo1":-89.0895,"lo2":-89.0444,"dy":0.0017,"dx":0.0017,"nx":28,"ny":28,"refTime":"2024-02-09T09:00:00:Z","depth":0,"parameterNumber":3,"parameterNumberName":"V-component_of_WINDS"},"data":[0,0,0,0,0,0,0,0,0,0,0,0,0,0,0,0,0,0,0,0,0,0,0,0,0,0,0,0,0,0,0,0,0,0,0,0,0,0,0,0,0,0,0,0,0,0,0,0,0,0,0,0,0,0,0,0,0,0,2.7341,2.7341,0,2.743,2.7431,2.7432,2.7463,2.7462,2.7462,2.7462,2.7553,2.7556,2.7559,0,0,0,0,0,0,0,0,0,0,0,0,0,2.7199,2.7202,2.734,2.7342,2.7343,2.743,2.7431,2.7432,2.7463,2.7462,2.7462,2.7462,2.7553,2.7556,2.7559,0,0,0,0,0,0,0,0,0,0,0,0,0,2.7272,2.7202,2.734,2.7368,2.7372,2.7429,2.7431,2.7432,2.7463,2.7462,2.7462,2.7461,2.7551,2.7555,2.756,2.7595,0,0,2.7572,2.7574,0,0,0,0,0,0,0,0,2.7268,2.7277,2.7363,2.7367,2.7371,2.7435,2.7415,2.7487,2.7463,2.7428,2.7462,2.7461,2.7514,2.7521,2.7539,2.76,2.7604,2.7573,2.7575,2.7577,2.7578,0,0,0,0,0,0,0,2.7262,2.7273,2.7376,2.7364,2.7369,2.7378,2.7387,2.7429,2.7473,2.7431,2.7434,2.7444,2.7516,2.7535,2.7542,2.7605,2.7572,2.7576,2.7579,2.758,2.7704,2.7705,0,0,0,0,0,0,2.7253,2.7269,2.7373,2.7378,2.7317,2.7381,2.7391,2.7415,2.7473,2.7481,2.7444,2.7445,2.7528,2.7537,2.7545,2.7594,2.7577,2.7581,2.7583,2.7703,2.7704,2.7705,0,0,0,0,0,0,2.7249,2.7261,2.7369,2.7324,2.7339,2.7384,2.7409,2.7417,2.7436,2.7483,2.7491,2.7455,2.7528,2.7539,2.7584,2.7598,2.7583,2.7586,2.7702,2.7704,2.7705,2.769,0,0,0,0,0,0,2.7245,2.726,2.7273,2.7324,2.7341,2.7405,2.741,2.7419,2.7443,2.7445,2.7495,2.7503,2.7529,2.7577,2.7588,2.7603,2.759,2.7701,2.7703,2.7704,2.769,2.7691,2.7692,0,0,0,0,0,2.724,2.7265,2.7274,2.7286,2.7358,2.7406,2.7416,2.7445,2.7444,2.7458,2.7489,2.7502,2.7594,2.7582,2.7594,2.761,2.7701,2.7703,2.7704,2.7689,2.7691,2.7692,0,0,0,0,0,0,2.7213,2.7272,2.7282,2.7324,2.736,2.7411,2.743,2.7445,2.7481,2.7481,2.7516,2.7527,2.757,2.7594,2.7579,2.7651,2.7648,2.7653,2.7633,2.7635,2.7636,2.7629,2.7593,0,0,0,0,0,2.7212,2.7245,2.7295,2.7327,2.7345,2.7384,2.7406,2.7426,2.7464,2.748,2.7513,2.7551,2.7589,2.7613,2.765,2.7693,2.7707,2.7711,2.7712,2.7713,2.7716,2.7745,2.7749,2.7711,2.7711,2.7711,0,0,2.721,2.7246,2.7265,2.7323,2.7353,2.7388,2.7397,2.7433,2.746,2.7485,2.753,2.7556,2.76,2.7646,2.7667,2.7667,2.773,2.7715,2.7715,2.7719,2.7747,2.7751,2.7754,2.7712,2.7712,2.7712,0,0,2.7224,2.7254,2.7286,2.7317,2.7363,2.739,2.7398,2.7448,2.7467,2.7512,2.7533,2.7566,2.763,2.7662,2.7686,2.7718,2.7732,2.7729,2.7734,2.7762,2.7765,2.7768,2.7782,2.7786,2.7732,2.7732,2.7732,0,2.7216,2.7269,2.73,2.7337,2.7363,2.7389,2.7423,2.7451,2.7507,2.7525,2.7525,2.7608,2.7639,2.7694,2.7702,2.772,2.7732,2.7723,2.7762,2.7765,2.7768,2.7782,2.7787,2.7731,2.7731,2.7732,2.7732,0,2.7258,2.7296,2.7316,2.7371,2.74,2.7434,2.7472,2.7498,2.7516,2.7543,2.7592,2.763,2.7678,2.7692,2.7709,2.775,2.775,2.7755,2.7754,2.7771,2.7785,2.779,2.7731,2.7731,2.7731,2.7731,0,0,2.7256,2.7331,2.7338,2.7365,2.742,2.745,2.7487,2.7534,2.7557,2.7595,2.7629,2.7684,2.7691,2.7719,2.774,2.7764,2.7791,2.7767,2.7769,2.7772,2.7843,2.784,2.7845,2.78,2.7801,2.7802,2.784,0,2.728,2.7348,2.7379,2.7433,2.747,2.7497,2.753,2.7568,2.7596,2.7632,2.7662,2.7702,2.7706,2.7724,2.7749,2.7782,2.7805,2.7779,2.7834,2.7835,2.7824,2.7852,2.7848,2.7881,2.7845,2.7846,2.7847,0,2.7315,2.7356,2.7415,2.7469,2.7486,2.7515,2.7563,2.7596,2.7641,2.766,2.7693,2.7715,2.7757,2.7753,2.7813,2.7795,2.7819,2.7839,2.7841,2.7849,2.7843,2.7862,2.7892,2.7898,2.7855,2.7854,2.7854,0,2.7311,2.738,2.7426,2.7448,2.7512,2.7532,2.756,2.7604,2.7632,2.7674,2.7693,2.7739,2.7765,2.7801,2.7835,2.7828,2.7894,2.7891,2.7912,2.7911,2.7925,2.7924,2.7962,2.7937,2.7937,2.7937,2.7937,0,2.7335,2.737,2.7426,2.7453,2.7495,2.7532,2.7572,2.7602,2.7642,2.7678,2.7703,2.7736,2.7778,2.7817,2.7844,2.7892,2.7903,2.7921,2.7928,2.7919,2.7917,2.7937,2.7936,2.7939,2.7938,2.7938,2.7938,0,2.7337,2.7375,2.7427,2.7484,2.75,2.7528,2.7578,2.7608,2.7638,2.7683,2.7695,2.7742,2.779,2.7828,2.7889,2.7907,2.7959,2.7965,2.7944,2.7948,2.7968,2.7966,2.8021,2.8031,2.7997,2.7998,2.7998,0,2.735,2.7378,2.744,2.7467,2.7495,2.7536,2.7566,2.7604,2.7634,2.769,2.7713,2.7762,2.7804,2.7879,2.7919,2.7968,2.7977,2.7993,2.7984,2.7976,2.7981,2.7979,2.7984,2.7994,2.7994,2.7994,2.7995,0,2.737,2.7389,2.743,2.748,2.7515,2.7556,2.7597,2.7617,2.7663,2.7696,2.7746,2.7778,2.7843,2.7893,2.7946,2.7976,2.7994,2.7997,2.8005,2.7998,2.7985,2.7995,2.7949,2.7996,2.7996,2.7996,2.7995,2.7995,2.7379,2.7408,2.7457,2.7504,2.754,2.7579,2.7611,2.7647,2.7689,2.7745,2.7765,2.7817,2.7866,2.7939,2.7969,2.8012,2.8013,2.8023,2.8026,2.8029,2.803,2.7977,2.8021,2.8021,2.8021,2.8021,2.8021,0,2.7403,2.7438,2.7481,2.7539,2.7577,2.7592,2.764,2.767,2.7716,2.776,2.7802,2.7861,2.7911,2.7956,2.8009,2.8034,2.8044,2.8047,2.8046,2.8053,2.8024,2.8013,2.8038,2.8038,2.8038,2.8038,2.8038,2.8038,2.742,2.747,2.7496,2.7565,2.7599,2.7651,2.7678,2.7715,2.7751,2.7816,2.7858,2.7888,2.7934,2.7991,2.8038,2.805,2.8069,2.807,2.8085,2.8057,2.8055,2.8053,2.8043,2.8074,2.8074,2.8111,2.8111,2.8112]}]]